Year,Month,Day,Hour,Minute,Value (Times are PST for temperature in C)
2014,08,12,00,00,16.80
2014,08,12,00,01,16.90
2014,08,12,00,02,17.00
2014,08,12,00,03,17.20
2014,08,12,00,04,17.30
2014,08,12,00,05,17.40
2014,08,12,00,06,17.60
2014,08,12,00,07,17.70
2014,08,12,00,08,17.80
2014,08,12,00,09,17.90
2014,08,12,00,10,18.10
2014,08,12,00,11,18.20
2014,08,12,00,12,18.30
2014,08,12,00,13,18.40
2014,08,12,00,14,18.50
2014,08,12,00,15,18.60
2014,08,12,00,16,18.80
2014,08,12,00,17,18.90
2014,08,12,00,18,19.10
2014,08,12,00,19,19.20
2014,08,12,00,20,19.30
2014,08,12,00,21,19.40
2014,08,12,00,22,19.50
2014,08,12,00,23,19.60
2014,08,12,00,24,19.60
2014,08,12,00,25,19.80
2014,08,12,00,26,19.90
2014,08,12,00,27,20.00
2014,08,12,00,28,20.10
2014,08,12,00,29,20.20
2014,08,12,00,30,20.20
2014,08,12,00,31,20.30
2014,08,12,00,32,20.30
2014,08,12,00,33,20.30
2014,08,12,00,34,20.30
2014,08,12,00,35,20.30
2014,08,12,00,36,20.30
2014,08,12,00,37,20.30
2014,08,12,00,38,20.30
2014,08,12,00,39,20.30
2014,08,12,00,40,20.30
2014,08,12,00,41,20.40
2014,08,12,00,42,20.40
2014,08,12,00,43,20.50
2014,08,12,00,44,20.60
2014,08,12,00,45,20.70
2014,08,12,00,46,20.80
2014,08,12,00,47,20.80
2014,08,12,00,48,20.90
2014,08,12,00,49,21.00
2014,08,12,00,50,21.00
2014,08,12,00,51,21.20
2014,08,12,00,52,21.40
2014,08,12,00,53,21.50
2014,08,12,00,54,21.70
2014,08,12,00,55,21.90
2014,08,12,00,56,22.00
2014,08,12,00,57,22.10
2014,08,12,00,58,22.30
2014,08,12,00,59,22.40
2014,08,12,01,00,22.60
2014,08,12,01,01,22.70
2014,08,12,01,02,22.80
2014,08,12,01,03,23.00
2014,08,12,01,04,23.00
2014,08,12,01,05,23.10
2014,08,12,01,06,23.20
2014,08,12,01,07,23.20
2014,08,12,01,08,23.30
2014,08,12,01,09,23.30
2014,08,12,01,10,23.40
2014,08,12,01,11,23.50
2014,08,12,01,12,23.60
2014,08,12,01,13,23.60
2014,08,12,01,14,23.70
2014,08,12,01,15,23.80
2014,08,12,01,16,23.90
2014,08,12,01,17,24.00
2014,08,12,01,18,24.10
2014,08,12,01,19,24.10
2014,08,12,01,20,24.20
2014,08,12,01,21,24.20
2014,08,12,01,22,24.30
2014,08,12,01,23,24.30
2014,08,12,01,24,24.30
2014,08,12,01,25,24.30
2014,08,12,01,26,24.40
2014,08,12,01,27,24.40
2014,08,12,01,28,24.40
2014,08,12,01,29,24.40
2014,08,12,01,30,24.40
2014,08,12,01,31,24.40
2014,08,12,01,32,24.30
2014,08,12,01,33,24.20
2014,08,12,01,34,24.10
2014,08,12,01,35,24.00
2014,08,12,01,36,24.00
2014,08,12,01,37,23.90
2014,08,12,01,38,23.80
2014,08,12,01,39,23.80
2014,08,12,01,40,23.80
2014,08,12,01,41,23.80
2014,08,12,01,42,23.80
2014,08,12,01,43,23.80
2014,08,12,01,44,23.90
2014,08,12,01,45,24.00
2014,08,12,01,46,24.00
2014,08,12,01,47,24.10
2014,08,12,01,48,24.20
2014,08,12,01,49,24.20
2014,08,12,01,50,24.20
2014,08,12,01,51,24.30
2014,08,12,01,52,24.30
2014,08,12,01,53,24.40
2014,08,12,01,54,24.50
2014,08,12,01,55,24.50
2014,08,12,01,56,24.50
2014,08,12,01,57,24.60
2014,08,12,01,58,24.60
2014,08,12,01,59,24.60
2014,08,12,02,00,24.60
2014,08,12,02,01,24.60
2014,08,12,02,02,24.60
2014,08,12,02,03,24.60
2014,08,12,02,04,24.60
2014,08,12,02,05,24.60
2014,08,12,02,06,24.60
2014,08,12,02,07,24.50
2014,08,12,02,08,23.70
2014,08,12,02,09,22.70
2014,08,12,02,10,21.80
2014,08,12,02,11,21.00
2014,08,12,02,12,20.30
2014,08,12,02,13,19.80
2014,08,12,02,14,19.30
2014,08,12,02,15,19.00
2014,08,12,02,16,18.70
2014,08,12,02,17,18.50
2014,08,12,02,18,18.30
2014,08,12,02,19,18.20
2014,08,12,02,20,18.20
2014,08,12,02,21,18.20
2014,08,12,02,22,18.20
2014,08,12,02,23,18.20
2014,08,12,02,24,18.20
2014,08,12,02,25,18.20
2014,08,12,02,26,18.20
2014,08,12,02,27,18.20
2014,08,12,02,28,18.20
2014,08,12,02,29,18.20
2014,08,12,02,30,18.20
2014,08,12,02,31,18.20
2014,08,12,02,32,18.30
2014,08,12,02,33,18.20
2014,08,12,02,34,18.20
2014,08,12,02,35,18.20
2014,08,12,02,36,18.20
2014,08,12,02,37,18.30
2014,08,12,02,38,18.30
2014,08,12,02,39,18.30
2014,08,12,02,40,18.30
2014,08,12,02,41,18.30
2014,08,12,02,42,18.30
2014,08,12,02,43,18.30
2014,08,12,02,44,18.40
2014,08,12,02,45,18.40
2014,08,12,02,46,18.40
2014,08,12,02,47,18.40
2014,08,12,02,48,18.40
2014,08,12,02,49,18.40
2014,08,12,02,50,18.50
2014,08,12,02,51,18.50
2014,08,12,02,52,18.50
2014,08,12,02,53,18.50
2014,08,12,02,54,18.50
2014,08,12,02,55,18.40
2014,08,12,02,56,18.40
2014,08,12,02,57,18.50
2014,08,12,02,58,18.50
2014,08,12,02,59,18.50
2014,08,12,03,00,18.50
2014,08,12,03,01,18.50
2014,08,12,03,02,18.50
2014,08,12,03,03,18.50
2014,08,12,03,04,18.50
2014,08,12,03,05,18.50
2014,08,12,03,06,18.60
2014,08,12,03,07,18.50
2014,08,12,03,08,18.50
2014,08,12,03,09,18.60
2014,08,12,03,10,18.60
2014,08,12,03,11,18.60
2014,08,12,03,12,18.60
2014,08,12,03,13,18.50
2014,08,12,03,14,18.50
2014,08,12,03,15,18.40
2014,08,12,03,16,18.40
2014,08,12,03,17,18.40
2014,08,12,03,18,18.40
2014,08,12,03,19,18.30
2014,08,12,03,20,18.30
2014,08,12,03,21,18.30
2014,08,12,03,22,18.20
2014,08,12,03,23,18.20
2014,08,12,03,24,18.20
2014,08,12,03,25,18.20
2014,08,12,03,26,18.20
2014,08,12,03,27,18.10
2014,08,12,03,28,18.10
2014,08,12,03,29,18.10
2014,08,12,03,30,18.10
2014,08,12,03,31,18.10
2014,08,12,03,32,18.00
2014,08,12,03,33,18.00
2014,08,12,03,34,17.90
2014,08,12,03,35,17.90
2014,08,12,03,36,17.90
2014,08,12,03,37,17.80
2014,08,12,03,38,17.80
2014,08,12,03,39,17.80
2014,08,12,03,40,17.80
2014,08,12,03,41,17.80
2014,08,12,03,42,17.80
2014,08,12,03,43,17.80
2014,08,12,03,44,17.80
2014,08,12,03,45,17.80
2014,08,12,03,46,17.80
2014,08,12,03,47,17.80
2014,08,12,03,48,17.80
2014,08,12,03,49,17.80
2014,08,12,03,50,17.80
2014,08,12,03,51,17.80
2014,08,12,03,52,17.80
2014,08,12,03,53,17.80
2014,08,12,03,54,17.80
2014,08,12,03,55,17.90
2014,08,12,03,56,17.90
2014,08,12,03,57,17.90
2014,08,12,03,58,17.90
2014,08,12,03,59,17.90
2014,08,12,04,00,17.90
2014,08,12,04,01,17.90
2014,08,12,04,02,17.90
2014,08,12,04,03,17.90
2014,08,12,04,04,17.90
2014,08,12,04,05,17.90
2014,08,12,04,06,17.80
2014,08,12,04,07,17.80
2014,08,12,04,08,17.80
2014,08,12,04,09,17.80
2014,08,12,04,10,17.80
2014,08,12,04,11,17.90
2014,08,12,04,12,17.90
2014,08,12,04,13,17.90
2014,08,12,04,14,17.90
2014,08,12,04,15,17.90
2014,08,12,04,16,17.90
2014,08,12,04,17,17.90
2014,08,12,04,18,17.90
2014,08,12,04,19,17.90
2014,08,12,04,20,17.90
2014,08,12,04,21,17.90
2014,08,12,04,22,17.90
2014,08,12,04,23,17.90
2014,08,12,04,24,17.90
2014,08,12,04,25,17.90
2014,08,12,04,26,17.90
2014,08,12,04,27,17.90
2014,08,12,04,28,17.90
2014,08,12,04,29,17.90
2014,08,12,04,30,17.90
2014,08,12,04,31,17.90
2014,08,12,04,32,18.00
2014,08,12,04,33,18.00
2014,08,12,04,34,18.00
2014,08,12,04,35,18.00
2014,08,12,04,36,18.10
2014,08,12,04,37,18.10
2014,08,12,04,38,18.10
2014,08,12,04,39,18.10
2014,08,12,04,40,18.10
2014,08,12,04,41,18.10
2014,08,12,04,42,18.10
2014,08,12,04,43,18.20
2014,08,12,04,44,18.10
2014,08,12,04,45,18.10
2014,08,12,04,46,18.10
2014,08,12,04,47,18.10
2014,08,12,04,48,18.10
2014,08,12,04,49,18.10
2014,08,12,04,50,18.10
2014,08,12,04,51,18.10
2014,08,12,04,52,18.20
2014,08,12,04,53,18.20
2014,08,12,04,54,18.20
2014,08,12,04,55,18.20
2014,08,12,04,56,18.20
2014,08,12,04,57,18.20
2014,08,12,04,58,18.20
2014,08,12,04,59,18.20
2014,08,12,05,00,18.20
2014,08,12,05,01,18.20
2014,08,12,05,02,18.20
2014,08,12,05,03,18.20
2014,08,12,05,04,18.30
2014,08,12,05,05,18.30
2014,08,12,05,06,18.30
2014,08,12,05,07,18.30
2014,08,12,05,08,18.30
2014,08,12,05,09,18.30
2014,08,12,05,10,18.30
2014,08,12,05,11,18.30
2014,08,12,05,12,18.30
2014,08,12,05,13,18.30
2014,08,12,05,14,18.30
2014,08,12,05,15,18.30
2014,08,12,05,16,18.30
2014,08,12,05,17,18.30
2014,08,12,05,18,18.30
2014,08,12,05,19,18.30
2014,08,12,05,20,18.30
2014,08,12,05,21,18.30
2014,08,12,05,22,18.30
2014,08,12,05,23,18.40
2014,08,12,05,24,18.40
2014,08,12,05,25,18.40
2014,08,12,05,26,18.40
2014,08,12,05,27,18.40
2014,08,12,05,28,18.40
2014,08,12,05,29,18.50
2014,08,12,05,30,18.60
2014,08,12,05,31,18.50
2014,08,12,05,32,18.40
2014,08,12,05,33,18.20
2014,08,12,05,34,18.10
2014,08,12,05,35,18.00
2014,08,12,05,36,17.90
2014,08,12,05,37,17.90
2014,08,12,05,38,17.80
2014,08,12,05,39,17.80
2014,08,12,05,40,17.80
2014,08,12,05,41,17.80
2014,08,12,05,42,17.80
2014,08,12,05,43,17.80
2014,08,12,05,44,17.80
2014,08,12,05,45,17.80
2014,08,12,05,46,17.80
2014,08,12,05,47,17.80
2014,08,12,05,48,17.80
2014,08,12,05,49,17.90
2014,08,12,05,50,17.90
2014,08,12,05,51,17.90
2014,08,12,05,52,18.00
2014,08,12,05,53,18.00
2014,08,12,05,54,18.00
2014,08,12,05,55,18.00
2014,08,12,05,56,18.10
2014,08,12,05,57,18.10
2014,08,12,05,58,18.10
2014,08,12,05,59,18.10
2014,08,12,06,00,18.20
2014,08,12,06,01,18.20
2014,08,12,06,02,18.20
2014,08,12,06,03,18.20
2014,08,12,06,04,18.20
2014,08,12,06,05,18.20
2014,08,12,06,06,18.20
2014,08,12,06,07,18.20
2014,08,12,06,08,18.10
2014,08,12,06,09,18.10
2014,08,12,06,10,18.10
2014,08,12,06,11,18.10
2014,08,12,06,12,18.10
2014,08,12,06,13,18.10
2014,08,12,06,14,18.00
2014,08,12,06,15,18.00
2014,08,12,06,16,18.00
2014,08,12,06,17,18.00
2014,08,12,06,18,18.00
2014,08,12,06,19,18.00
2014,08,12,06,20,18.00
2014,08,12,06,21,18.00
2014,08,12,06,22,18.00
2014,08,12,06,23,18.00
2014,08,12,06,24,18.00
2014,08,12,06,25,18.10
2014,08,12,06,26,18.10
2014,08,12,06,27,18.10
2014,08,12,06,28,18.10
2014,08,12,06,29,18.10
2014,08,12,06,30,18.10
2014,08,12,06,31,18.10
2014,08,12,06,32,18.10
2014,08,12,06,33,18.10
2014,08,12,06,34,18.10
2014,08,12,06,35,18.10
2014,08,12,06,36,18.10
2014,08,12,06,37,18.10
2014,08,12,06,38,18.10
2014,08,12,06,39,18.10
2014,08,12,06,40,18.00
2014,08,12,06,41,17.80
2014,08,12,06,42,17.50
2014,08,12,06,43,17.20
2014,08,12,06,44,16.90
2014,08,12,06,45,16.60
2014,08,12,06,46,16.20
2014,08,12,06,47,15.80
2014,08,12,06,48,15.50
2014,08,12,06,49,15.40
2014,08,12,06,50,15.20
2014,08,12,06,51,15.10
2014,08,12,06,52,15.00
2014,08,12,06,53,15.00
2014,08,12,06,54,15.00
2014,08,12,06,55,15.00
2014,08,12,06,56,14.90
2014,08,12,06,57,14.90
2014,08,12,06,58,14.90
2014,08,12,06,59,14.90
2014,08,12,07,00,14.90
2014,08,12,07,01,14.90
2014,08,12,07,02,15.00
2014,08,12,07,03,15.00
2014,08,12,07,04,15.00
2014,08,12,07,05,15.00
2014,08,12,07,06,15.10
2014,08,12,07,07,15.30
2014,08,12,07,08,15.40
2014,08,12,07,09,15.50
2014,08,12,07,10,15.50
2014,08,12,07,11,15.60
2014,08,12,07,12,15.70
2014,08,12,07,13,15.80
2014,08,12,07,14,15.90
2014,08,12,07,15,16.10
2014,08,12,07,16,16.20
2014,08,12,07,17,16.30
2014,08,12,07,18,16.50
2014,08,12,07,19,16.60
2014,08,12,07,20,16.70
2014,08,12,07,21,16.80
2014,08,12,07,22,16.90
2014,08,12,07,23,17.10
2014,08,12,07,24,17.20
2014,08,12,07,25,17.30
2014,08,12,07,26,17.40
2014,08,12,07,27,17.50
2014,08,12,07,28,17.50
2014,08,12,07,29,17.60
2014,08,12,07,30,17.70
2014,08,12,07,31,17.70
2014,08,12,07,32,17.80
2014,08,12,07,33,17.80
2014,08,12,07,34,17.90
2014,08,12,07,35,17.90
2014,08,12,07,36,18.00
2014,08,12,07,37,18.00
2014,08,12,07,38,18.10
2014,08,12,07,39,18.00
2014,08,12,07,40,17.90
2014,08,12,07,41,17.90
2014,08,12,07,42,17.80
2014,08,12,07,43,17.80
2014,08,12,07,44,17.70
2014,08,12,07,45,17.70
2014,08,12,07,46,17.70
2014,08,12,07,47,17.60
2014,08,12,07,48,17.50
2014,08,12,07,49,17.40
2014,08,12,07,50,17.30
2014,08,12,07,51,17.20
2014,08,12,07,52,17.20
2014,08,12,07,53,17.20
2014,08,12,07,54,17.10
2014,08,12,07,55,17.10
2014,08,12,07,56,17.10
2014,08,12,07,57,17.10
2014,08,12,07,58,17.10
2014,08,12,07,59,17.10
2014,08,12,08,00,17.10
2014,08,12,08,01,17.20
2014,08,12,08,02,17.20
2014,08,12,08,03,17.30
2014,08,12,08,04,17.40
2014,08,12,08,05,17.40
2014,08,12,08,06,17.50
2014,08,12,08,07,17.60
2014,08,12,08,08,17.70
2014,08,12,08,09,17.80
2014,08,12,08,10,17.90
2014,08,12,08,11,17.90
2014,08,12,08,12,18.00
2014,08,12,08,13,18.10
2014,08,12,08,14,18.10
2014,08,12,08,15,18.20
2014,08,12,08,16,18.20
2014,08,12,08,17,18.30
2014,08,12,08,18,18.40
2014,08,12,08,19,18.40
2014,08,12,08,20,18.50
2014,08,12,08,21,18.60
2014,08,12,08,22,18.70
2014,08,12,08,23,18.70
2014,08,12,08,24,18.80
2014,08,12,08,25,18.80
2014,08,12,08,26,18.90
2014,08,12,08,27,18.90
2014,08,12,08,28,19.00
2014,08,12,08,29,19.10
2014,08,12,08,30,19.10
2014,08,12,08,31,19.20
2014,08,12,08,32,19.20
2014,08,12,08,33,19.20
2014,08,12,08,34,19.20
2014,08,12,08,35,19.10
2014,08,12,08,36,19.10
2014,08,12,08,37,19.10
2014,08,12,08,38,19.10
2014,08,12,08,39,19.00
2014,08,12,08,40,19.00
2014,08,12,08,41,18.90
2014,08,12,08,42,18.90
2014,08,12,08,43,18.90
2014,08,12,08,44,18.90
2014,08,12,08,45,18.90
2014,08,12,08,46,18.90
2014,08,12,08,47,18.90
2014,08,12,08,48,18.80
2014,08,12,08,49,18.80
2014,08,12,08,50,18.80
2014,08,12,08,51,18.80
2014,08,12,08,52,18.80
2014,08,12,08,53,18.80
2014,08,12,08,54,18.70
2014,08,12,08,55,18.70
2014,08,12,08,56,18.70
2014,08,12,08,57,18.70
2014,08,12,08,58,18.70
2014,08,12,08,59,18.70
2014,08,12,09,00,18.80
2014,08,12,09,01,18.80
2014,08,12,09,02,18.80
2014,08,12,09,03,18.90
2014,08,12,09,04,18.90
2014,08,12,09,05,18.80
2014,08,12,09,06,18.80
2014,08,12,09,07,18.80
2014,08,12,09,08,18.70
2014,08,12,09,09,18.60
2014,08,12,09,10,18.50
2014,08,12,09,11,18.50
2014,08,12,09,12,18.40
2014,08,12,09,13,18.30
2014,08,12,09,14,18.20
2014,08,12,09,15,18.10
2014,08,12,09,16,18.00
2014,08,12,09,17,17.90
2014,08,12,09,18,17.80
2014,08,12,09,19,17.80
2014,08,12,09,20,17.80
2014,08,12,09,21,17.70
2014,08,12,09,22,17.70
2014,08,12,09,23,17.70
2014,08,12,09,24,17.70
2014,08,12,09,25,17.70
2014,08,12,09,26,17.70
2014,08,12,09,27,17.70
2014,08,12,09,28,17.70
2014,08,12,09,29,17.70
2014,08,12,09,30,17.70
2014,08,12,09,31,17.70
2014,08,12,09,32,17.80
2014,08,12,09,33,17.80
2014,08,12,09,34,17.80
2014,08,12,09,35,17.80
2014,08,12,09,36,17.90
2014,08,12,09,37,17.90
2014,08,12,09,38,18.00
2014,08,12,09,39,18.00
2014,08,12,09,40,18.10
2014,08,12,09,41,18.10
2014,08,12,09,42,18.20
2014,08,12,09,43,18.30
2014,08,12,09,44,18.40
2014,08,12,09,45,18.50
2014,08,12,09,46,18.60
2014,08,12,09,47,18.80
2014,08,12,09,48,18.90
2014,08,12,09,49,19.00
2014,08,12,09,50,19.10
2014,08,12,09,51,19.20
2014,08,12,09,52,19.30
2014,08,12,09,53,19.40
2014,08,12,09,54,19.50
2014,08,12,09,55,19.60
2014,08,12,09,56,19.70
2014,08,12,09,57,19.80
2014,08,12,09,58,19.90
2014,08,12,09,59,20.00
2014,08,12,10,00,20.10
2014,08,12,10,01,20.20
2014,08,12,10,02,20.30
2014,08,12,10,03,20.40
2014,08,12,10,04,20.40
2014,08,12,10,05,20.50
2014,08,12,10,06,20.60
2014,08,12,10,07,20.70
2014,08,12,10,08,20.80
2014,08,12,10,09,20.80
2014,08,12,10,10,20.90
2014,08,12,10,11,20.90
2014,08,12,10,12,20.90
2014,08,12,10,13,21.00
2014,08,12,10,14,21.00
2014,08,12,10,15,21.00
2014,08,12,10,16,21.00
2014,08,12,10,17,21.00
2014,08,12,10,18,21.00
2014,08,12,10,19,21.00
2014,08,12,10,20,21.00
2014,08,12,10,21,21.00
2014,08,12,10,22,21.10
2014,08,12,10,23,21.10
2014,08,12,10,24,21.10
2014,08,12,10,25,21.10
2014,08,12,10,26,21.10
2014,08,12,10,27,21.10
2014,08,12,10,28,21.10
2014,08,12,10,29,21.10
2014,08,12,10,30,21.10
2014,08,12,10,31,21.10
2014,08,12,10,32,21.10
2014,08,12,10,33,21.20
2014,08,12,10,34,21.20
2014,08,12,10,35,21.20
2014,08,12,10,36,21.20
2014,08,12,10,37,21.30
2014,08,12,10,38,21.30
2014,08,12,10,39,21.30
2014,08,12,10,40,21.30
2014,08,12,10,41,21.30
2014,08,12,10,42,21.30
2014,08,12,10,43,21.40
2014,08,12,10,44,21.40
2014,08,12,10,45,21.40
2014,08,12,10,46,21.40
2014,08,12,10,47,21.30
2014,08,12,10,48,21.30
2014,08,12,10,49,21.30
2014,08,12,10,50,21.30
2014,08,12,10,51,21.30
2014,08,12,10,52,21.30
2014,08,12,10,53,21.30
2014,08,12,10,54,21.30
2014,08,12,10,55,21.30
2014,08,12,10,56,21.30
2014,08,12,10,57,21.20
2014,08,12,10,58,21.20
2014,08,12,10,59,21.20
2014,08,12,11,00,21.20
2014,08,12,11,01,21.20
2014,08,12,11,02,21.20
2014,08,12,11,03,21.20
2014,08,12,11,04,21.20
2014,08,12,11,05,21.20
2014,08,12,11,06,21.20
2014,08,12,11,07,21.20
2014,08,12,11,08,21.20
2014,08,12,11,09,21.20
2014,08,12,11,10,21.30
2014,08,12,11,11,21.30
2014,08,12,11,12,21.30
2014,08,12,11,13,21.30
2014,08,12,11,14,21.30
2014,08,12,11,15,21.30
2014,08,12,11,16,21.40
2014,08,12,11,17,21.40
2014,08,12,11,18,21.40
2014,08,12,11,19,21.40
2014,08,12,11,20,21.40
2014,08,12,11,21,21.40
2014,08,12,11,22,21.40
2014,08,12,11,23,21.50
2014,08,12,11,24,21.50
2014,08,12,11,25,21.60
2014,08,12,11,26,21.60
2014,08,12,11,27,21.70
2014,08,12,11,28,21.70
2014,08,12,11,29,21.80
2014,08,12,11,30,21.80
2014,08,12,11,31,21.90
2014,08,12,11,32,22.00
2014,08,12,11,33,22.00
2014,08,12,11,34,22.10
2014,08,12,11,35,22.20
2014,08,12,11,36,22.20
2014,08,12,11,37,22.20
2014,08,12,11,38,22.30
2014,08,12,11,39,22.30
2014,08,12,11,40,22.40
2014,08,12,11,41,22.40
2014,08,12,11,42,22.50
2014,08,12,11,43,22.50
2014,08,12,11,44,22.60
2014,08,12,11,45,22.60
2014,08,12,11,46,22.70
2014,08,12,11,47,22.70
2014,08,12,11,48,22.70
2014,08,12,11,49,22.80
2014,08,12,11,50,22.80
2014,08,12,11,51,22.80
2014,08,12,11,52,22.90
2014,08,12,11,53,22.90
2014,08,12,11,54,22.90
2014,08,12,11,55,23.00
2014,08,12,11,56,23.00
2014,08,12,11,57,23.00
2014,08,12,11,58,23.10
2014,08,12,11,59,23.10
2014,08,12,12,00,23.10
2014,08,12,12,01,23.10
2014,08,12,12,02,23.10
2014,08,12,12,03,23.10
2014,08,12,12,04,23.10
2014,08,12,12,05,23.00
2014,08,12,12,06,23.00
2014,08,12,12,07,22.90
2014,08,12,12,08,22.80
2014,08,12,12,09,22.80
2014,08,12,12,10,22.70
2014,08,12,12,11,22.70
2014,08,12,12,12,22.70
2014,08,12,12,13,22.70
2014,08,12,12,14,22.60
2014,08,12,12,15,22.60
2014,08,12,12,16,22.60
2014,08,12,12,17,22.60
2014,08,12,12,18,22.60
2014,08,12,12,19,22.60
2014,08,12,12,20,22.70
2014,08,12,12,21,22.70
2014,08,12,12,22,22.70
2014,08,12,12,23,22.70
2014,08,12,12,24,22.70
2014,08,12,12,25,22.70
2014,08,12,12,26,22.70
2014,08,12,12,27,22.70
2014,08,12,12,28,22.70
2014,08,12,12,29,22.60
2014,08,12,12,30,22.60
2014,08,12,12,31,22.70
2014,08,12,12,32,22.70
2014,08,12,12,33,22.70
2014,08,12,12,34,22.70
2014,08,12,12,35,22.70
2014,08,12,12,36,22.70
2014,08,12,12,37,22.80
2014,08,12,12,38,22.80
2014,08,12,12,39,22.80
2014,08,12,12,40,22.80
2014,08,12,12,41,22.90
2014,08,12,12,42,22.90
2014,08,12,12,43,22.90
2014,08,12,12,44,22.90
2014,08,12,12,45,22.90
2014,08,12,12,46,22.90
2014,08,12,12,47,22.90
2014,08,12,12,48,22.90
2014,08,12,12,49,23.00
2014,08,12,12,50,23.00
2014,08,12,12,51,23.00
2014,08,12,12,52,22.80
2014,08,12,12,53,22.70
2014,08,12,12,54,22.60
2014,08,12,12,55,22.50
2014,08,12,12,56,22.30
2014,08,12,12,57,22.20
2014,08,12,12,58,22.20
2014,08,12,12,59,22.10
2014,08,12,13,00,22.10
2014,08,12,13,01,22.10
2014,08,12,13,02,22.20
2014,08,12,13,03,22.20
2014,08,12,13,04,22.30
2014,08,12,13,05,22.40
2014,08,12,13,06,22.40
2014,08,12,13,07,22.50
2014,08,12,13,08,22.60
2014,08,12,13,09,22.70
2014,08,12,13,10,22.90
2014,08,12,13,11,23.00
2014,08,12,13,12,23.10
2014,08,12,13,13,23.20
2014,08,12,13,14,23.40
2014,08,12,13,15,23.50
2014,08,12,13,16,23.60
2014,08,12,13,17,23.70
2014,08,12,13,18,23.80
2014,08,12,13,19,23.80
2014,08,12,13,20,23.80
2014,08,12,13,21,23.80
2014,08,12,13,22,23.90
2014,08,12,13,23,23.90
2014,08,12,13,24,24.00
2014,08,12,13,25,24.10
2014,08,12,13,26,24.20
2014,08,12,13,27,24.20
2014,08,12,13,28,24.20
2014,08,12,13,29,24.20
2014,08,12,13,30,24.20
2014,08,12,13,31,24.30
2014,08,12,13,32,24.30
2014,08,12,13,33,24.30
2014,08,12,13,34,24.30
2014,08,12,13,35,24.40
2014,08,12,13,36,24.40
2014,08,12,13,37,24.50
2014,08,12,13,38,24.50
2014,08,12,13,39,24.50
2014,08,12,13,40,24.40
2014,08,12,13,41,24.30
2014,08,12,13,42,24.20
2014,08,12,13,43,24.00
2014,08,12,13,44,23.90
2014,08,12,13,45,23.90
2014,08,12,13,46,23.80
2014,08,12,13,47,23.70
2014,08,12,13,48,23.70
2014,08,12,13,49,23.70
2014,08,12,13,50,23.80
2014,08,12,13,51,23.80
2014,08,12,13,52,23.80
2014,08,12,13,53,23.80
2014,08,12,13,54,23.90
2014,08,12,13,55,24.00
2014,08,12,13,56,24.10
2014,08,12,13,57,24.10
2014,08,12,13,58,24.20
2014,08,12,13,59,24.30
2014,08,12,14,00,24.30
2014,08,12,14,01,24.30
2014,08,12,14,02,24.30
2014,08,12,14,03,24.20
2014,08,12,14,04,24.10
2014,08,12,14,05,24.00
2014,08,12,14,06,23.80
2014,08,12,14,07,23.50
2014,08,12,14,08,23.10
2014,08,12,14,09,22.70
2014,08,12,14,10,22.40
2014,08,12,14,11,22.20
2014,08,12,14,12,22.00
2014,08,12,14,13,21.80
2014,08,12,14,14,21.70
2014,08,12,14,15,21.70
2014,08,12,14,16,21.70
2014,08,12,14,17,21.70
2014,08,12,14,18,21.70
2014,08,12,14,19,21.70
2014,08,12,14,20,21.70
2014,08,12,14,21,21.70
2014,08,12,14,22,21.80
2014,08,12,14,23,21.80
2014,08,12,14,24,21.90
2014,08,12,14,25,22.00
2014,08,12,14,26,22.10
2014,08,12,14,27,22.20
2014,08,12,14,28,22.30
2014,08,12,14,29,22.40
2014,08,12,14,30,22.50
2014,08,12,14,31,22.60
2014,08,12,14,32,22.70
2014,08,12,14,33,22.80
2014,08,12,14,34,22.80
2014,08,12,14,35,22.90
2014,08,12,14,36,22.90
2014,08,12,14,37,23.00
2014,08,12,14,38,23.00
2014,08,12,14,39,23.10
2014,08,12,14,40,23.10
2014,08,12,14,41,23.20
2014,08,12,14,42,23.20
2014,08,12,14,43,23.30
2014,08,12,14,44,23.40
2014,08,12,14,45,23.50
2014,08,12,14,46,23.50
2014,08,12,14,47,23.60
2014,08,12,14,48,23.60
2014,08,12,14,49,23.50
2014,08,12,14,50,23.50
2014,08,12,14,51,23.40
2014,08,12,14,52,23.40
2014,08,12,14,53,23.40
2014,08,12,14,54,23.40
2014,08,12,14,55,23.40
2014,08,12,14,56,23.50
2014,08,12,14,57,23.50
2014,08,12,14,58,23.50
2014,08,12,14,59,23.40
2014,08,12,15,00,23.40
2014,08,12,15,01,23.30
2014,08,12,15,02,23.20
2014,08,12,15,03,23.20
2014,08,12,15,04,23.10
2014,08,12,15,05,23.10
2014,08,12,15,06,23.10
2014,08,12,15,07,23.10
2014,08,12,15,08,23.10
2014,08,12,15,09,23.10
2014,08,12,15,10,23.10
2014,08,12,15,11,23.20
2014,08,12,15,12,23.20
2014,08,12,15,13,23.20
2014,08,12,15,14,23.20
2014,08,12,15,15,23.30
2014,08,12,15,16,23.30
2014,08,12,15,17,23.30
2014,08,12,15,18,23.40
2014,08,12,15,19,23.40
2014,08,12,15,20,23.40
2014,08,12,15,21,23.40
2014,08,12,15,22,23.50
2014,08,12,15,23,23.50
2014,08,12,15,24,23.50
2014,08,12,15,25,23.60
2014,08,12,15,26,23.60
2014,08,12,15,27,23.70
2014,08,12,15,28,23.70
2014,08,12,15,29,23.80
2014,08,12,15,30,23.90
2014,08,12,15,31,23.90
2014,08,12,15,32,24.00
2014,08,12,15,33,24.10
2014,08,12,15,34,24.10
2014,08,12,15,35,24.20
2014,08,12,15,36,24.20
2014,08,12,15,37,24.20
2014,08,12,15,38,24.30
2014,08,12,15,39,24.30
2014,08,12,15,40,24.40
2014,08,12,15,41,24.40
2014,08,12,15,42,24.50
2014,08,12,15,43,24.50
2014,08,12,15,44,24.60
2014,08,12,15,45,24.70
2014,08,12,15,46,24.70
2014,08,12,15,47,24.80
2014,08,12,15,48,24.80
2014,08,12,15,49,24.90
2014,08,12,15,50,25.10
2014,08,12,15,51,25.10
2014,08,12,15,52,25.10
2014,08,12,15,53,25.10
2014,08,12,15,54,25.10
2014,08,12,15,55,25.20
2014,08,12,15,56,25.30
2014,08,12,15,57,25.30
2014,08,12,15,58,25.20
2014,08,12,15,59,25.00
2014,08,12,16,00,24.70
2014,08,12,16,01,24.60
2014,08,12,16,02,24.60
2014,08,12,16,03,24.70
2014,08,12,16,04,24.70
2014,08,12,16,05,24.80
2014,08,12,16,06,24.70
2014,08,12,16,07,24.70
2014,08,12,16,08,24.60
2014,08,12,16,09,24.50
2014,08,12,16,10,24.50
2014,08,12,16,11,24.50
2014,08,12,16,12,24.40
2014,08,12,16,13,24.40
2014,08,12,16,14,24.40
2014,08,12,16,15,24.30
2014,08,12,16,16,24.20
2014,08,12,16,17,24.10
2014,08,12,16,18,24.10
2014,08,12,16,19,24.10
2014,08,12,16,20,24.10
2014,08,12,16,21,24.20
2014,08,12,16,22,24.30
2014,08,12,16,23,24.50
2014,08,12,16,24,24.60
2014,08,12,16,25,24.80
2014,08,12,16,26,24.90
2014,08,12,16,27,24.90
2014,08,12,16,28,24.90
2014,08,12,16,29,24.90
2014,08,12,16,30,24.90
2014,08,12,16,31,24.90
2014,08,12,16,32,24.90
2014,08,12,16,33,24.90
2014,08,12,16,34,24.90
2014,08,12,16,35,24.90
2014,08,12,16,36,24.90
2014,08,12,16,37,24.90
2014,08,12,16,38,24.90
2014,08,12,16,39,24.90
2014,08,12,16,40,24.90
2014,08,12,16,41,25.00
2014,08,12,16,42,25.00
2014,08,12,16,43,25.10
2014,08,12,16,44,25.20
2014,08,12,16,45,25.20
2014,08,12,16,46,25.30
2014,08,12,16,47,25.40
2014,08,12,16,48,25.50
2014,08,12,16,49,25.50
2014,08,12,16,50,25.60
2014,08,12,16,51,25.70
2014,08,12,16,52,25.80
2014,08,12,16,53,25.80
2014,08,12,16,54,25.80
2014,08,12,16,55,25.80
2014,08,12,16,56,25.80
2014,08,12,16,57,25.80
2014,08,12,16,58,25.80
2014,08,12,16,59,25.80
2014,08,12,17,00,25.80
2014,08,12,17,01,25.70
2014,08,12,17,02,25.40
2014,08,12,17,03,25.20
2014,08,12,17,04,25.10
2014,08,12,17,05,25.10
2014,08,12,17,06,25.00
2014,08,12,17,07,24.80
2014,08,12,17,08,24.70
2014,08,12,17,09,24.70
2014,08,12,17,10,24.60
2014,08,12,17,11,24.60
2014,08,12,17,12,24.60
2014,08,12,17,13,24.70
2014,08,12,17,14,24.70
2014,08,12,17,15,24.80
2014,08,12,17,16,24.80
2014,08,12,17,17,24.70
2014,08,12,17,18,24.70
2014,08,12,17,19,24.70